Marysville, CA

7:47 PM PDT on September 18, 2019 (GMT -0700)
Yuba County

Weather History for KMYV - August, 2019

Change the Weather History Date:

Friday, August 16, 2019

  Actual Average Record
Temperature  
Mean Temperature 86 °F -  
Max Temperature 102 °F 92 °F 107 °F (1967)
Min Temperature 69 °F 59 °F 50 °F (1976)
Cooling Degree Days 20    
Growing Degree Days 36 (Base 50)    
Moisture  
Dew Point 58 °F    
Average Humidity 41    
Maximum Humidity 70    
Minimum Humidity 15    
Precipitation  
Precipitation 0.00 in - - ()
Sea Level Pressure  
Sea Level Pressure 29.78 in    
Wind  
Wind Speed 4 mph (SSW)    
Max Wind Speed 10 mph    
Max Gust Speed -    
Visibility 10 miles    
Events      
Averages and records for this station are not official NWS values.
T = Trace of Precipitation, MM = Missing Value Source: NWS Daily Summary

Daily Weather History Graph

Daily Weather History Graph

Search for Another Location

Airport or City:

Astronomy

Aug. 16, 2019 Rise Set
Actual Time 6:20 AM PDT 8:00 PM PDT
Civil Twilight 5:51 AM PDT 8:28 PM PDT
Nautical Twilight 5:17 AM PDT 9:02 PM PDT
Astronomical Twilight 4:40 AM PDT 9:39 PM PDT
Moon 9:02 PM PDT (8/16) 7:16 AM PDT (8/16)
Length of Visible Light 14h 36m
Length of Day
13h 39m
Full, 99% of the Moon is Illuminated
Aug 16
Full
Aug 23
Last Quarter
Aug 30
New
Sep 5
First Quarter
Sep 13
Full

Hourly Weather History & Observations

Time (PDT) Temp. Heat Index Dew Point Humidity Pressure Visibility Wind Dir Wind Speed Gust Speed Precip Events Conditions
12:53 AM 77.0 °F - 55.0 °F 47% 29.80 in 10.0 mi ESE 3.5 mph - N/A   Clear
1:53 AM 75.9 °F - 57.0 °F 52% 29.80 in 10.0 mi SE 3.5 mph - N/A   Clear
2:53 AM 71.1 °F - 55.9 °F 59% 29.80 in 10.0 mi South 3.5 mph - N/A   Clear
3:53 AM 69.1 °F - 57.0 °F 65% 29.81 in 10.0 mi NW 3.5 mph - N/A   Clear
4:53 AM 69.1 °F - 59.0 °F 70% 29.82 in 10.0 mi Calm Calm - N/A   Clear
5:53 AM 72.0 °F - 57.9 °F 61% 29.83 in 10.0 mi ENE 3.5 mph - N/A   Clear
6:53 AM 69.1 °F - 59.0 °F 70% 29.84 in 10.0 mi Calm Calm - N/A   Clear
7:53 AM 78.1 °F - 60.1 °F 54% 29.86 in 10.0 mi NW 3.5 mph - N/A   Clear
8:53 AM 84.0 °F 83.3 °F 57.0 °F 40% 29.85 in 10.0 mi Calm Calm - N/A   Clear
9:53 AM 91.0 °F 89.2 °F 55.9 °F 30% 29.85 in 10.0 mi Variable 3.5 mph - N/A   Clear
10:53 AM 91.0 °F 88.9 °F 55.0 °F 29% 29.85 in 10.0 mi West 4.6 mph - N/A   Clear
11:53 AM 93.9 °F 92.9 °F 57.9 °F 30% 29.83 in 10.0 mi SW 6.9 mph - N/A   Clear
12:53 PM 97.0 °F 96.5 °F 59.0 °F 28% 29.81 in 10.0 mi SW 8.1 mph - N/A   Clear
1:53 PM 100.0 °F 99.7 °F 57.9 °F 25% 29.79 in 10.0 mi West 6.9 mph - 0.00 in   Clear
2:53 PM 100.9 °F 100.5 °F 57.9 °F 24% 29.76 in 10.0 mi West 6.9 mph - N/A   Clear
3:53 PM 102.0 °F 101.1 °F 55.9 °F 22% 29.74 in 10.0 mi SW 9.2 mph - N/A   Clear
4:53 PM 102.0 °F 101.6 °F 57.9 °F 23% 29.73 in 10.0 mi SW 6.9 mph - N/A   Clear
5:53 PM 102.9 °F - 46.0 °F 15% 29.71 in 10.0 mi South 8.1 mph - N/A   Clear
6:53 PM 100.0 °F 98.8 °F 55.9 °F 23% 29.70 in 10.0 mi SSE 8.1 mph - N/A   Clear
7:53 PM 93.0 °F 93.8 °F 62.1 °F 36% 29.70 in 10.0 mi SSE 5.8 mph - N/A   Clear
8:53 PM 88.0 °F 88.4 °F 62.1 °F 42% 29.70 in 10.0 mi South 8.1 mph - N/A   Clear
9:53 PM 84.0 °F 84.5 °F 62.1 °F 47% 29.71 in 10.0 mi SE 5.8 mph - N/A   Clear
10:53 PM 81.0 °F 81.7 °F 61.0 °F 50% 29.72 in 10.0 mi South 10.4 mph - N/A   Clear
11:53 PM 78.1 °F - 60.1 °F 54% 29.73 in 10.0 mi SSE 9.2 mph - N/A   Clear